This demonstration page uses our WeatherBlox Daily Observations layout. Learn more.

Left ArrowRight Arrow

Hourly Observations for September 2, 2016

Temp ( °F °C ) Dew Point ( °F °C ) Humidity (%) Winds ( mph kmh ) Pressure ( in mb ) Visibility ( mi km ) Precip ( " mm )
12:51 am 00:51 Clear 71 21.7 60 15.6 68 68 E 7 11 29.91 1013 10 16.0934 0 0
1:51 am 01:51 Clear 71 21.7 60 15.6 68 68 SSE 12 19 29.91 1013 10 16.0934 0 0
2:51 am 02:51 Clear 71 21.7 60 15.6 68 68 ESE 6 9 29.88 1012 10 16.0934 0 0
3:51 am 03:51 Clear 71 21.7 61 16.1 71 71 S 8 13 29.86 1011 10 16.0934 0 0
4:51 am 04:51 Clear 71 21.7 60 15.6 68 68 SSE 12 19 29.88 1012 10 16.0934 0 0
5:51 am 05:51 Clear 70 21.1 61 16.1 73 73 SSE 8 13 29.9 1012 10 16.0934 0 0
6:51 am 06:51 Mostly Sunny 70 21.1 61 16.1 73 73 SE 7 11 29.92 1013 10 16.0934 0 0
7:51 am 07:51 Sunny 74 23.3 61 16.1 64 64 SE 9 15 29.93 1013 10 16.0934 0 0
8:51 am 08:51 Sunny 79 26.1 60 15.6 52 52 SSE 6 9 29.92 1013 10 16.0934 0 0
9:51 am 09:51 Sunny 81 27.2 60 15.6 49 49 SSE 7 11 29.92 1013 10 16.0934 0 0
10:51 am 10:51 Sunny 83 28.3 60 15.6 46 46 S 9 15 29.91 1013 10 16.0934 0 0
11:51 am 11:51 Sunny 87 30.6 61 16.1 42 42 S 13 20 29.88 1012 10 16.0934 0 0
12:51 pm 12:51 Sunny 90 32.2 57 13.9 33 33 S 8 13 29.83 1010 10 16.0934 0 0
1:51 pm 13:51 Sunny 93 33.9 58 14.4 31 31 Calm 29.78 1009 10 16.0934 0 0
2:51 pm 14:51 Sunny 94 34.4 57 13.9 29 29 SE 7 11 29.75 1007 10 16.0934 0 0
3:51 pm 15:51 Sunny 95 35 54 12.2 25 25 SSE 7 11 29.72 1007 10 16.0934 0 0
4:34 pm 16:34 Mostly Cloudy with Nearby Thunderstorms 91 32.8 57 13.9 32 32 SSW 18 30 29.62 1003 10 16.0934 0 0
4:51 pm 16:51 Mostly Cloudy with Nearby Thunderstorms 90 32.2 57 13.9 33 33 SW 15 24 29.73 1007 10 16.0934 0 0
5:21 pm 17:21 Cloudy 88 31.1 60 15.6 39 39 W 7 11 29.68 1005 10 16.0934 0 0
5:51 pm 17:51 Cloudy 89 31.7 59 15 36 36 Calm 29.74 1007 10 16.0934 0 0
6:51 pm 18:51 Clear 87 30.6 59 15 39 39 E 5 7 29.73 1007 10 16.0934 0 0
7:51 pm 19:51 Clear 85 29.4 58 14.4 40 40 Calm 29.75 1008 10 16.0934 0 0
8:51 pm 20:51 Clear 82 27.8 58 14.4 44 44 ESE 8 13 29.76 1008 10 16.0934 0 0
9:51 pm 21:51 Clear 83 28.3 59 15 44 44 E 10 17 29.77 1008 10 16.0934 0 0
10:51 pm 22:51 Mostly Cloudy 82 27.8 59 15 46 46 SE 6 9 29.78 1009 10 16.0934 0 0
11:51 pm 23:51 Mostly Cloudy 80 26.7 59 15 49 49 E 6 9 29.77 1008 10 16.0934 0 0

Powered by AerisWeather